SCP
1 1 0 0 0 0 0 0 1 1 1 1 0 1 1 0 0 0 0 0 0 0
1 1 0 0 0 0 0 0 0 0 1 1 1 1 1 1 0 0 0 0 0 0
1 1 0 0 0 0 0 0 0 1 1 1 1 1 1 1 1 1 1 1 1 1
0 0 0 0 0 0 0 1 1 1 1 1 1 1 1 1 1 1 1 1 1 1
0 0 0 0 0 0 1 1 1 1 1 1 1 1 1 1 1 1 1 1 1 0
1 1 1 0 0 1 1 1 1 1 1 1 0 0 1 1 1 1 1 1 1 1
1 1 1 1 2 2 2 2 2 2 2 1 1 1 1 1 1 1 1 1 1 1
0 0 0 1 1 1 2 2 1 1 2 1 1 0 1 1 1 1 0 1 1 1
0 0 0 0 0 1 1 1 1 1 1 2 1 0 1 1 1 1 1 1 1 1
0 0 0 0 0 0 0 0 0 1 1 1 1 1 0 1 1 1 1 1 1 1
0 0 0 0 0 0 0 0 0 0 0 0 1 0 0 0 1 1 1 1 1 1
0 0 0 0 0 0 0 0 0 0 0 0 0 0 0 0 1 0 1 1 1 1
0 0 0 0 0 0 0 0 0 0 0 0 0 0 0 0 1 1 0 0 2 1
0 0 0 0 0 0 0 0 0 0 0 0 0 0 0 0 0 1 0 0 0 0
Wind_Speed_500mb
7 9 14 18 22 15 18 20 26 31 41 41 41 40 39 39 41 36 40 42 40 37
9 11 12 20 20 16 20 19 29 32 35 40 45 42 41 41 43 41 41 41 40 42
7 8 9 11 12 14 20 27 29 31 32 34 38 41 42 43 43 43 44 47 44 43
4 8 11 13 17 19 21 22 24 30 27 29 31 33 34 38 42 42 46 44 44 45
13 13 15 18 17 18 19 19 19 20 20 22 24 28 30 33 33 36 43 44 42 38
17 18 20 24 27 28 28 25 23 22 23 23 21 22 24 19 26 30 37 40 43 45
22 25 26 30 28 33 35 35 31 30 32 30 29 29 28 30 31 28 31 34 43 48
28 30 32 31 32 34 41 43 44 42 39 39 38 39 40 34 29 35 41 44 41 47
27 28 29 33 36 38 40 42 45 51 53 51 46 48 50 50 44 42 42 47 47 43
32 34 34 33 31 34 39 44 49 51 50 54 59 54 57 59 51 40 38 40 40 38
32 33 34 36 38 41 41 42 44 47 53 57 54 53 61 62 60 48 43 40 40 43
37 39 39 41 43 44 43 44 46 46 46 51 54 52 56 60 59 53 53 48 43 40
36 41 44 48 52 53 51 46 45 48 51 45 48 50 53 56 59 58 62 61 55 49
41 39 38 44 46 49 50 53 57 50 43 42 40 44 45 53 59 56 61 64 66 53
Wind_Direction_500mb
261 261 261 292 283 284 271 272 275 260 259 244 241 248 238 241 241 240 241 238 235 237
356 332 280 293 292 283 284 277 271 271 263 254 246 243 249 245 245 236 237 243 243 240
315 337 335 318 314 293 277 271 274 274 272 262 255 255 253 252 250 246 243 243 243 241
17 349 326 307 308 311 308 300 296 293 280 274 266 264 262 259 257 253 250 247 246 253
321 320 315 305 292 298 300 303 301 295 289 281 284 278 273 270 266 259 258 252 246 244
308 307 299 297 290 285 288 285 284 279 279 279 278 273 282 284 272 276 266 258 252 243
320 312 310 291 282 282 276 276 272 269 267 267 270 269 265 265 274 280 280 274 262 253
318 315 311 311 303 296 285 276 272 266 263 264 263 269 274 263 267 278 283 283 267 264
327 321 319 308 292 284 284 281 279 275 267 263 264 267 268 263 268 271 268 270 276 278
306 313 311 300 295 294 289 282 278 277 274 269 261 252 260 263 264 265 271 269 273 274
327 320 317 316 314 308 298 281 278 279 276 272 268 264 251 258 262 266 260 259 258 271
331 328 325 320 317 312 305 299 291 275 274 277 274 271 264 260 261 260 260 264 264 256
334 336 337 331 330 325 319 308 298 290 273 265 276 273 271 267 260 255 256 256 254 258
334 332 331 332 331 329 327 319 317 310 299 279 277 285 279 272 270 263 251 258 257 250
Wind_Speed_850mb
7 9 14 18 22 15 18 20 26 31 41 41 41 40 39 39 41 36 40 42 40 37
9 11 12 20 20 16 20 19 29 32 35 40 45 42 41 41 43 41 41 41 40 42
7 8 9 11 12 14 20 27 29 31 32 34 38 41 42 43 43 43 44 47 44 43
4 8 11 13 17 19 21 22 24 30 27 29 31 33 34 38 42 42 46 44 44 45
13 13 15 18 17 18 19 19 19 20 20 22 24 28 30 33 33 36 43 44 42 38
17 18 20 24 27 28 28 25 23 22 23 23 21 22 24 19 26 30 37 40 43 45
22 25 26 30 28 33 35 35 31 30 32 30 29 29 28 30 31 28 31 34 43 48
28 30 32 31 32 34 41 43 44 42 39 39 38 39 40 34 29 35 41 44 41 47
27 28 29 33 36 38 40 42 45 51 53 51 46 48 50 50 44 42 42 47 47 43
32 34 34 33 31 34 39 44 49 51 50 54 59 54 57 59 51 40 38 40 40 38
32 33 34 36 38 41 41 42 44 47 53 57 54 53 61 62 60 48 43 40 40 43
37 39 39 41 43 44 43 44 46 46 46 51 54 52 56 60 59 53 53 48 43 40
36 41 44 48 52 53 51 46 45 48 51 45 48 50 53 56 59 58 62 61 55 49
41 39 38 44 46 49 50 53 57 50 43 42 40 44 45 53 59 56 61 64 66 53
Wind_Direction_850mb
261 261 261 292 283 284 271 272 275 260 259 244 241 248 238 241 241 240 241 238 235 237
356 332 280 293 292 283 284 277 271 271 263 254 246 243 249 245 245 236 237 243 243 240
315 337 335 318 314 293 277 271 274 274 272 262 255 255 253 252 250 246 243 243 243 241
17 349 326 307 308 311 308 300 296 293 280 274 266 264 262 259 257 253 250 247 246 253
321 320 315 305 292 298 300 303 301 295 289 281 284 278 273 270 266 259 258 252 246 244
308 307 299 297 290 285 288 285 284 279 279 279 278 273 282 284 272 276 266 258 252 243
320 312 310 291 282 282 276 276 272 269 267 267 270 269 265 265 274 280 280 274 262 253
318 315 311 311 303 296 285 276 272 266 263 264 263 269 274 263 267 278 283 283 267 264
327 321 319 308 292 284 284 281 279 275 267 263 264 267 268 263 268 271 268 270 276 278
306 313 311 300 295 294 289 282 278 277 274 269 261 252 260 263 264 265 271 269 273 274
327 320 317 316 314 308 298 281 278 279 276 272 268 264 251 258 262 266 260 259 258 271
331 328 325 320 317 312 305 299 291 275 274 277 274 271 264 260 261 260 260 264 264 256
334 336 337 331 330 325 319 308 298 290 273 265 276 273 271 267 260 255 256 256 254 258
334 332 331 332 331 329 327 319 317 310 299 279 277 285 279 272 270 263 251 258 257 250